Home > Weather > Vientiane > Past weeks

Flag for Laos Weather for the Past 2 Weeks in Vientiane, Laos

Now
79 °F

Sunny.


Feels Like: 79 °F
Forecast: 53 / 83 °F
Wind: 2 mph from Southeast

Location: Vientiane Airport

Current Time: Feb 9, 2016 at 4:07:48 PM

Latest Report: Feb 9, 2016 at 3:00 PM


Visibility: 10 mi

Pressure: 29.95 "Hg

Humidity: 37%

Dew point: 50 °F

Location of VientianeLocation

Historic Weather in Vientiane — Graph

°F

Vientiane Temperature Yesterday

Maximum temperature yesterday: 75 °F (at 2:30 PM)
Minimum temperature yesterday: 50 °F (at 6:00 AM)
Average temperature yesterday: 66 °F

High & Low Weather Summary for the Past Weeks

 TemperatureHumidityPressure
High90 °F (Feb 1, 3:30 PM)100% (Jan 26, 8:30 AM)30.27 "Hg (Jan 26, 8:30 AM)
Low50 °F (Jan 26, 6:00 PM)36% (Feb 7, 3:00 PM)29.80 "Hg (Jan 31, 3:00 PM)
Average71 °F71%30.01 "Hg
* Reported Jan 25 2:00 PM — Feb 9 2:00 PM, Vientiane, Weather by CustomWeather, © 2016

Note: Actual official high and low records may vary slightly from our data, if they occured in-between our weather recording intervals... More about our weather records

Advertising

Vientiane Weather History for the Previous 24 Hours

 ConditionsComfort  
Time TempWeatherWind HumidityBarometerVisibility
2:00 PM
Tue, Feb 9
77 °FSunny.2 mph39%30.01 "Hg10 mi
1:30 PM75 °FSunny.2 mph41%30.01 "Hg10 mi
1:00 PM75 °FSunny.2 mph41%30.01 "Hg10 mi
12:30 PM73 °FSunny.2 mph44%30.07 "Hg10 mi
12:00 PM73 °FSunny.2 mph44%30.07 "Hg10 mi
11:00 AM70 °FSunny.2 mph50%30.09 "Hg10 mi
10:30 AM66 °FScattered clouds.5 mph60%30.12 "Hg5 mi
10:00 AM66 °FScattered clouds.5 mph60%30.12 "Hg5 mi
9:30 AM61 °FScattered clouds.2 mph68%30.09 "Hg4 mi
9:00 AM61 °FScattered clouds.2 mph68%30.09 "Hg4 mi
8:30 AM55 °FFog.2 mph77%30.09 "Hg3 mi
7:30 AM54 °FFog.2 mph88%30.09 "Hg3 mi
7:00 AM54 °FFog.2 mph88%30.07 "Hg3 mi
6:30 AM54 °FFog.2 mph88%30.09 "Hg3 mi
6:00 AM54 °FFog.2 mph88%30.07 "Hg2 mi
11:30 PM
Mon, Feb 8
57 °FFog.2 mph82%30.07 "Hg2 mi
11:00 PM59 °FFog.2 mph77%30.07 "Hg2 mi
10:30 PM59 °FFog.2 mph77%30.07 "Hg2 mi
10:00 PM61 °FFog.2 mph72%30.04 "Hg2 mi
9:00 PM64 °FFog.2 mph73%30.04 "Hg2 mi
8:30 PM64 °FFog.2 mph68%30.04 "Hg2 mi
8:00 PM66 °FFog.2 mph64%30.04 "Hg2 mi
7:00 PM68 °FFog.2 mph60%30.01 "Hg3 mi
6:30 PM72 °FFog.2 mph50%30.01 "Hg3 mi
6:00 PM73 °FScattered clouds.2 mph47%30.01 "Hg5 mi
5:30 PM75 °FSunny.5 mph39%30.01 "Hg10 mi
5:00 PM75 °FSunny.5 mph39%30.01 "Hg10 mi
4:30 PM75 °FPassing clouds.2 mph36%29.98 "HgN/A
4:00 PM75 °FPassing clouds.2 mph36%30.01 "HgN/A
Weather by CustomWeather, © 2016

See weather overviewHow to use our weather pages